Location: Kershaw
(34.5481°N, 80.5823°W)
Time: 16:51:51
(UTC+00:00)

Vanguard 1 Rocket - Pass Details

Date: 08 October 2022
Orbit: 650 x 4225 km, 34.3° (Epoch: 08 December)

Event Time Altitude Azimuth Distance (km) Brightness Sun altitude
Rises 19:20:41 0° 193° (SSW) 7,670 12.8 39.0°
Reaches altitude 10° 19:27:20 10° 182° (S) 7,038 12.6 38.0°
Maximum altitude 19:45:45 26° 135° (SE) 6,096 11.8 35.2°
Drops below altitude 10° 20:03:04 10° 88° (E) 6,772 11.5 32.4°
Sets 20:09:00 0° 78° (ENE) 7,366 11.5 31.4°
